Weather History for Pensacola NAS, FL

Change the Weather History Date:

Tuesday, December 25, 2012

  Actual Average Record
Temperature  
Mean Temperature 63 °F -  
Max Temperature 73 °F 58 °F 73 °F (2008)
Min Temperature 53 °F 39 °F 30 °F (2013)
Degree Days  
Heating Degree Days 2    
Growing Degree Days 13 (Base 50)    
Moisture  
Dew Point 64 °F    
Average Humidity 94    
Maximum Humidity 100    
Minimum Humidity 76    
Precipitation  
Precipitation 0.32 in - - ()
Sea Level Pressure  
Sea Level Pressure 29.78 in    
Wind  
Wind Speed 7 mph (SSE)    
Max Wind Speed 25 mph    
Max Gust Speed 40 mph    
Visibility 6 miles    
Events Fog , Rain , Thunderstorm    
Averages and records for this station are not official NWS values.
T = Trace of Precipitation, MM = Missing Value Source: NWS Daily Summary

Daily Weather History Graph

Daily Weather History Graph

Search for Another Location

Airport:

Trip Planner

Search our weather history database for the weather conditions in past years. The results will help you decide how hot, cold, wet, or windy it might be!

Date:

Astronomy

Dec. 25, 2012 Rise Set
Actual Time 6:43 AM CST 4:55 PM CST
Civil Twilight 6:17 AM CST 5:22 PM CST
Nautical Twilight 5:47 AM CST 5:52 PM CST
Astronomical Twilight 5:18 AM CST 6:21 PM CST
Moon 3:00 PM CST (12/25) 4:18 AM CST (12/25)
Length of Visible Light 11h 04m
Length of Day
10h 11m
Waxing Gibbous, 94% of the Moon is Illuminated
Dec 25
Waxing Gibbous
Dec 28
Full
Jan 4
Last Quarter
Jan 11
New
Jan 18
First Quarter

Hourly Weather History & Observations

Time (CST) Temp. Dew Point Humidity Pressure Visibility Wind Dir Wind Speed Gust Speed Precip Events Conditions
12:26 AM 64.4 °F 64.4 °F 100% 29.90 in 0.5 mi Calm Calm - N/A Fog Fog
12:56 AM 64.0 °F 64.0 °F 100% 29.91 in 0.8 mi Calm Calm - N/A   Mist
1:06 AM 64.4 °F 64.4 °F 100% 29.90 in 1.5 mi Calm Calm - N/A   Overcast
1:27 AM 64.4 °F 64.4 °F 100% 29.90 in 0.8 mi Calm Calm - N/A   Mist
1:56 AM 64.0 °F 64.0 °F 100% 29.90 in 0.5 mi Calm Calm - N/A Fog Fog
2:23 AM 64.4 °F 64.4 °F 100% 29.89 in 0.2 mi Calm Calm - N/A Fog Fog
2:56 AM 63.0 °F 63.0 °F 100% 29.89 in 0.5 mi Calm Calm - N/A Fog Fog
3:06 AM 62.6 °F 62.6 °F 100% 29.88 in 0.2 mi Calm Calm - N/A Fog Fog
3:56 AM 63.0 °F 63.0 °F 100% 29.87 in 0.2 mi Calm Calm - N/A Fog Fog
4:16 AM 62.6 °F 62.6 °F 100% 29.86 in 0.5 mi East 4.6 mph - N/A Fog Fog
4:56 AM 63.0 °F 63.0 °F 100% 29.86 in 0.8 mi East 5.8 mph - N/A   Mist
5:51 AM 64.4 °F 64.4 °F 100% 29.86 in 1.2 mi East 6.9 mph - 0.00 in   Overcast
5:56 AM 64.0 °F 64.0 °F 100% 29.86 in 1.2 mi East 6.9 mph - 0.00 in   Overcast
6:16 AM 64.4 °F 64.4 °F 100% 29.84 in 3.0 mi ESE 8.1 mph - N/A   Overcast
6:50 AM 64.4 °F 64.4 °F 100% 29.84 in 7.0 mi SE 10.4 mph - N/A   Overcast
6:56 AM 64.0 °F 64.0 °F 100% 29.85 in 6.0 mi ESE 10.4 mph - N/A   Overcast
7:14 AM 64.4 °F 64.4 °F 100% 29.84 in 6.0 mi SE 8.1 mph - N/A   Overcast
7:48 AM 66.2 °F 66.2 °F 100% 29.84 in 10.0 mi South 12.7 mph - N/A   Overcast
7:56 AM 66.9 °F 66.0 °F 97% 29.86 in 10.0 mi South 12.7 mph - N/A   Overcast
8:56 AM 66.9 °F 66.0 °F 97% 29.85 in 10.0 mi South 10.4 mph - N/A   Partly Cloudy
9:56 AM 69.1 °F 66.0 °F 90% 29.85 in 10.0 mi SSE 12.7 mph - N/A   Partly Cloudy
10:56 AM 73.9 °F 66.0 °F 76% 29.85 in 10.0 mi South 13.8 mph - N/A   Partly Cloudy
11:56 AM 70.0 °F 66.0 °F 87% 29.82 in 10.0 mi SSE 11.5 mph - N/A   Mostly Cloudy
12:56 PM 71.1 °F 66.0 °F 84% 29.76 in 10.0 mi SSE 15.0 mph 23.0 mph N/A   Mostly Cloudy
1:08 PM 71.6 °F 66.2 °F 83% 29.74 in 10.0 mi SSE 15.0 mph 23.0 mph N/A   Mostly Cloudy
1:56 PM 70.0 °F 66.0 °F 87% 29.73 in 10.0 mi SE 15.0 mph 20.7 mph N/A   Overcast
2:40 PM 69.8 °F 66.2 °F 88% 29.74 in 10.0 mi SSE 15.0 mph - N/A   Mostly Cloudy
2:56 PM 70.0 °F 66.9 °F 90% 29.74 in 10.0 mi SSE 13.8 mph - N/A   Mostly Cloudy
3:56 PM 70.0 °F 66.0 °F 87% 29.73 in 10.0 mi South 17.3 mph 25.3 mph N/A   Mostly Cloudy
4:20 PM 68.0 °F 66.2 °F 94% 29.72 in 10.0 mi South 12.7 mph - N/A   Scattered Clouds
4:56 PM 69.1 °F 66.0 °F 90% 29.68 in 10.0 mi South 19.6 mph - N/A   Clear
5:56 PM 69.1 °F 64.9 °F 87% 29.70 in 10.0 mi South 18.4 mph - N/A   Mostly Cloudy
6:56 PM 70.0 °F 64.9 °F 84% 29.64 in 10.0 mi South 25.3 mph 33.4 mph N/A   Clear
7:56 PM 70.0 °F 66.0 °F 87% 29.62 in 10.0 mi South 24.2 mph 33.4 mph N/A   Overcast
8:36 PM 69.8 °F 66.2 °F 88% 29.61 in 10.0 mi South 23.0 mph 34.5 mph N/A Thunderstorm Thunderstorm
8:56 PM 69.1 °F 66.0 °F 90% 29.64 in 4.0 mi South 24.2 mph 32.2 mph 0.03 in Rain , Thunderstorm Heavy Thunderstorms and Rain
9:25 PM 69.8 °F 66.2 °F 88% 29.61 in 9.0 mi South 23.0 mph 33.4 mph 0.05 in Rain Light Rain
9:34 PM 69.8 °F 66.2 °F 88% 29.61 in 9.0 mi South 24.2 mph 31.1 mph 0.05 in Rain , Thunderstorm Light Thunderstorms and Rain
9:56 PM 63.0 °F 61.0 °F 93% 29.68 in 5.0 mi West 15.0 mph 40.3 mph 0.11 in Rain , Thunderstorm Light Thunderstorms and Rain
10:07 PM 55.4 °F 55.4 °F 100% 29.69 in 2.5 mi WSW 10.4 mph 33.4 mph 0.10 in Rain , Thunderstorm Heavy Thunderstorms and Rain
10:17 PM 53.6 °F 53.6 °F 100% 29.69 in 3.0 mi WSW 10.4 mph 23.0 mph 0.16 in Rain , Thunderstorm Heavy Thunderstorms and Rain
10:33 PM 55.4 °F - N/A% 29.68 in 9.0 mi WSW 8.1 mph 17.3 mph 0.18 in Rain , Thunderstorm Light Thunderstorms and Rain
10:56 PM 55.9 °F - N/A% 29.67 in 10.0 mi West 9.2 mph - 0.18 in   Mostly Cloudy
11:56 PM 57.0 °F - N/A% 29.69 in 10.0 mi Variable 6.9 mph - N/A   Mostly Cloudy